Time,TemperatureF,DewpointF,PressureIn,WindDirection,WindDirectionDegrees,WindSpeedMPH,WindSpeedGustMPH,Humidity,HourlyPrecipIn,Conditions,Clouds,dailyrainin,SolarRadiationWatts/m^2,SoftwareType,DateUTC
2013-03-17 00:04:00,17.4,12.0,29.95,WSW,254,5.0,6.0,79,0.00,,,0.01,0,weatherlink.com 1.10,2013-03-17 04:04:00,
2013-03-17 00:19:00,16.9,12.0,29.95,WSW,246,4.0,8.0,80,0.00,,,0.01,0,weatherlink.com 1.10,2013-03-17 04:19:00,
2013-03-17 00:34:00,16.5,11.0,29.95,WSW,240,3.0,7.0,80,0.00,,,0.01,0,weatherlink.com 1.10,2013-03-17 04:34:00,
2013-03-17 00:49:00,16.0,11.0,29.95,SW,229,2.0,4.0,80,0.00,,,0.01,0,weatherlink.com 1.10,2013-03-17 04:49:00,
2013-03-17 01:04:00,15.4,11.0,29.95,SW,223,1.0,3.0,81,0.00,,,0.01,0,weatherlink.com 1.10,2013-03-17 05:04:00,
2013-03-17 01:19:00,15.1,11.0,29.95,SW,230,2.0,3.0,82,0.00,,,0.01,0,weatherlink.com 1.10,2013-03-17 05:19:00,
2013-03-17 01:34:00,15.1,11.0,29.96,WSW,242,0.0,5.0,82,0.00,,,0.01,0,weatherlink.com 1.10,2013-03-17 05:34:00,
2013-03-17 01:49:00,15.0,10.0,29.97,WSW,252,2.0,3.0,82,0.00,,,0.01,0,weatherlink.com 1.10,2013-03-17 05:49:00,
2013-03-17 02:19:00,15.4,11.0,29.98,West,274,3.0,4.0,81,0.00,,,0.01,0,weatherlink.com 1.10,2013-03-17 06:19:00,
2013-03-17 02:34:00,15.3,10.0,29.98,WSW,255,0.0,5.0,80,0.00,,,0.01,0,weatherlink.com 1.10,2013-03-17 06:34:00,
2013-03-17 02:49:00,14.8,10.0,29.99,WSW,252,3.0,4.0,81,0.00,,,0.01,0,weatherlink.com 1.10,2013-03-17 06:49:00,
2013-03-17 03:04:00,14.7,10.0,30.00,SW,231,3.0,5.0,82,0.00,,,0.01,0,weatherlink.com 1.10,2013-03-17 07:04:00,
2013-03-17 03:19:00,15.3,11.0,30.00,WSW,242,4.0,7.0,83,0.00,,,0.00,0,weatherlink.com 1.10,2013-03-17 07:19:00,
2013-03-17 03:34:00,16.0,12.0,29.99,SW,227,0.0,5.0,83,0.00,,,0.00,0,weatherlink.com 1.10,2013-03-17 07:34:00,
2013-03-17 03:49:00,16.2,12.0,29.98,WSW,241,3.0,6.0,82,0.00,,,0.00,0,weatherlink.com 1.10,2013-03-17 07:49:00,
2013-03-17 04:04:00,16.3,12.0,29.97,SW,233,3.0,6.0,83,0.00,,,0.00,0,weatherlink.com 1.10,2013-03-17 08:04:00,
2013-03-17 04:20:00,16.4,13.0,29.97,WSW,246,5.0,8.0,85,0.00,,,0.00,0,weatherlink.com 1.10,2013-03-17 08:20:00,
2013-03-17 04:35:00,17.3,14.0,29.98,WSW,249,5.0,9.0,86,0.00,,,0.00,0,weatherlink.com 1.10,2013-03-17 08:35:00,
2013-03-17 04:50:00,18.0,14.0,29.98,WSW,254,4.0,7.0,85,0.00,,,0.00,0,weatherlink.com 1.10,2013-03-17 08:50:00,
2013-03-17 05:05:00,18.6,15.0,29.98,WSW,248,3.0,10.0,85,0.00,,,0.00,0,weatherlink.com 1.10,2013-03-17 09:05:00,
2013-03-17 05:20:00,19.5,16.0,29.99,WSW,239,5.0,13.0,86,0.00,,,0.00,0,weatherlink.com 1.10,2013-03-17 09:20:00,
2013-03-17 05:35:00,20.0,17.0,29.99,WSW,240,4.0,9.0,87,0.00,,,0.00,0,weatherlink.com 1.10,2013-03-17 09:35:00,
2013-03-17 05:50:00,20.1,17.0,30.01,WSW,250,0.0,4.0,87,0.00,,,0.00,0,weatherlink.com 1.10,2013-03-17 09:50:00,
2013-03-17 06:05:00,20.2,17.0,30.02,WNW,286,0.0,10.0,88,0.00,,,0.00,0,weatherlink.com 1.10,2013-03-17 10:05:00,
2013-03-17 06:20:00,20.1,17.0,30.03,WNW,297,4.0,9.0,89,0.00,,,0.00,0,weatherlink.com 1.10,2013-03-17 10:20:00,
2013-03-17 06:35:00,20.0,17.0,30.04,WSW,257,0.0,9.0,89,0.00,,,0.00,0,weatherlink.com 1.10,2013-03-17 10:35:00,
2013-03-17 06:50:00,19.8,17.0,30.05,West,267,8.0,9.0,90,0.00,,,0.00,0,weatherlink.com 1.10,2013-03-17 10:50:00,
2013-03-17 07:05:00,19.6,17.0,30.05,NNW,338,0.0,12.0,90,0.00,,,0.00,0,weatherlink.com 1.10,2013-03-17 11:05:00,
2013-03-17 07:20:00,19.6,17.0,30.07,NW,306,3.0,8.0,90,0.00,,,0.00,5,weatherlink.com 1.10,2013-03-17 11:20:00,
2013-03-17 07:35:00,19.3,17.0,30.07,NNW,331,6.0,11.0,89,0.00,,,0.00,18,weatherlink.com 1.10,2013-03-17 11:35:00,
2013-03-17 07:50:00,19.0,16.0,30.07,WNW,291,0.0,8.0,89,0.00,,,0.00,26,weatherlink.com 1.10,2013-03-17 11:50:00,
2013-03-17 08:05:00,19.1,16.0,30.08,NW,322,0.0,4.0,88,0.00,,,0.00,53,weatherlink.com 1.10,2013-03-17 12:05:00,
2013-03-17 08:20:00,19.6,16.0,30.09,NW,309,4.0,6.0,86,0.00,,,0.00,113,weatherlink.com 1.10,2013-03-17 12:20:00,
2013-03-17 08:35:00,20.1,16.0,30.10,NW,319,6.0,9.0,85,0.00,,,0.00,151,weatherlink.com 1.10,2013-03-17 12:35:00,
2013-03-17 08:50:00,20.2,16.0,30.10,NW,310,3.0,14.0,82,0.00,,,0.00,325,weatherlink.com 1.10,2013-03-17 12:50:00,
2013-03-17 09:05:00,20.2,14.0,30.11,NNW,331,10.0,16.0,78,0.00,,,0.00,113,weatherlink.com 1.10,2013-03-17 13:05:00,
2013-03-17 09:20:00,20.2,14.0,30.11,NW,323,12.0,15.0,76,0.00,,,0.00,265,weatherlink.com 1.10,2013-03-17 13:20:00,
2013-03-17 09:35:00,20.6,14.0,30.12,North,5,6.0,11.0,75,0.00,,,0.00,311,weatherlink.com 1.10,2013-03-17 13:35:00,
2013-03-17 09:51:00,20.8,13.0,30.14,NW,314,3.0,15.0,72,0.00,,,0.00,434,weatherlink.com 1.10,2013-03-17 13:51:00,
2013-03-17 10:06:00,21.4,14.0,30.14,North,360,8.0,11.0,72,0.00,,,0.00,504,weatherlink.com 1.10,2013-03-17 14:06:00,
2013-03-17 10:21:00,22.1,14.0,30.15,NNW,338,4.0,10.0,71,0.00,,,0.00,552,weatherlink.com 1.10,2013-03-17 14:21:00,
2013-03-17 10:51:00,23.2,14.0,30.16,NW,311,4.0,12.0,68,0.00,,,0.00,635,weatherlink.com 1.10,2013-03-17 14:51:00,
2013-03-17 11:06:00,23.3,14.0,30.16,NW,310,8.0,13.0,67,0.00,,,0.00,673,weatherlink.com 1.10,2013-03-17 15:06:00,
2013-03-17 11:36:00,24.3,12.0,30.16,NW,309,6.0,16.0,61,0.00,,,0.00,745,weatherlink.com 1.10,2013-03-17 15:36:00,
2013-03-17 11:51:00,24.8,13.0,30.16,NNW,348,4.0,14.0,60,0.00,,,0.00,870,weatherlink.com 1.10,2013-03-17 15:51:00,
2013-03-17 12:06:00,24.9,11.0,30.17,NNE,13,6.0,20.0,57,0.00,,,0.00,865,weatherlink.com 1.10,2013-03-17 16:06:00,
2013-03-17 12:21:00,26.0,13.0,30.18,NW,306,10.0,17.0,57,0.00,,,0.00,969,weatherlink.com 1.10,2013-03-17 16:21:00,
2013-03-17 12:51:00,26.4,13.0,30.18,West,271,8.0,20.0,58,0.00,,,0.00,429,weatherlink.com 1.10,2013-03-17 16:51:00,
2013-03-17 13:20:00,26.2,13.0,30.19,NW,314,16.0,21.0,57,0.00,,,0.00,810,weatherlink.com 1.10,2013-03-17 17:20:00,
2013-03-17 13:36:00,26.5,12.0,30.19,NNW,336,5.0,18.0,55,0.00,,,0.00,925,weatherlink.com 1.10,2013-03-17 17:36:00,
2013-03-17 13:51:00,26.3,12.0,30.18,WNW,296,16.0,21.0,56,0.00,,,0.00,322,weatherlink.com 1.10,2013-03-17 17:51:00,
2013-03-17 14:06:00,26.4,13.0,30.19,West,272,9.0,21.0,58,0.00,,,0.00,856,weatherlink.com 1.10,2013-03-17 18:06:00,
2013-03-17 14:21:00,26.6,13.0,30.18,NW,315,3.0,17.0,57,0.00,,,0.00,853,weatherlink.com 1.10,2013-03-17 18:21:00,
2013-03-17 14:36:00,26.1,13.0,30.19,NW,317,8.0,15.0,57,0.00,,,0.00,207,weatherlink.com 1.10,2013-03-17 18:36:00,
2013-03-17 14:51:00,27.4,15.0,30.19,WNW,293,12.0,14.0,61,0.00,,,0.00,930,weatherlink.com 1.10,2013-03-17 18:51:00,
2013-03-17 15:06:00,27.3,15.0,30.19,SW,230,0.0,18.0,60,0.00,,,0.00,842,weatherlink.com 1.10,2013-03-17 19:06:00,
2013-03-17 15:21:00,27.9,14.0,30.19,WNW,291,3.0,17.0,57,0.00,,,0.00,805,weatherlink.com 1.10,2013-03-17 19:21:00,
2013-03-17 15:36:00,27.3,13.0,30.19,NW,316,10.0,22.0,56,0.00,,,0.00,712,weatherlink.com 1.10,2013-03-17 19:36:00,
2013-03-17 16:06:00,27.7,14.0,30.20,North,350,6.0,15.0,56,0.00,,,0.00,707,weatherlink.com 1.10,2013-03-17 20:06:00,
2013-03-17 16:21:00,27.4,14.0,30.20,NW,306,4.0,17.0,57,0.00,,,0.00,575,weatherlink.com 1.10,2013-03-17 20:21:00,
2013-03-17 16:36:00,27.1,14.0,30.21,West,265,2.0,14.0,59,0.00,,,0.00,185,weatherlink.com 1.10,2013-03-17 20:36:00,
2013-03-17 16:51:00,26.5,13.0,30.21,NNW,340,8.0,17.0,56,0.00,,,0.00,455,weatherlink.com 1.10,2013-03-17 20:51:00,
2013-03-17 17:06:00,27.2,14.0,30.21,WNW,292,3.0,13.0,58,0.00,,,0.00,406,weatherlink.com 1.10,2013-03-17 21:06:00,
2013-03-17 17:22:00,26.8,12.0,30.22,WNW,298,6.0,15.0,55,0.00,,,0.00,353,weatherlink.com 1.10,2013-03-17 21:22:00,
2013-03-17 17:36:00,26.6,13.0,30.23,WSW,258,6.0,15.0,58,0.00,,,0.00,285,weatherlink.com 1.10,2013-03-17 21:36:00,
2013-03-17 17:51:00,26.2,13.0,30.23,West,271,14.0,16.0,57,0.00,,,0.00,176,weatherlink.com 1.10,2013-03-17 21:51:00,
2013-03-17 18:09:00,26.0,13.0,30.24,WNW,302,9.0,12.0,57,0.00,,,0.00,176,weatherlink.com 1.10,2013-03-17 22:09:00,
2013-03-17 18:22:00,25.8,13.0,30.23,NW,308,4.0,11.0,58,0.00,,,0.00,65,weatherlink.com 1.10,2013-03-17 22:22:00,
2013-03-17 18:37:00,25.0,12.0,30.24,NW,310,3.0,12.0,58,0.00,,,0.00,33,weatherlink.com 1.10,2013-03-17 22:37:00,
2013-03-17 18:52:00,24.6,12.0,30.24,WNW,284,5.0,12.0,59,0.00,,,0.00,16,weatherlink.com 1.10,2013-03-17 22:52:00,
2013-03-17 19:07:00,24.3,12.0,30.25,WNW,284,3.0,12.0,60,0.00,,,0.00,7,weatherlink.com 1.10,2013-03-17 23:07:00,
2013-03-17 19:22:00,23.9,12.0,30.27,NW,313,3.0,8.0,61,0.00,,,0.00,0,weatherlink.com 1.10,2013-03-17 23:22:00,
2013-03-17 19:37:00,23.5,12.0,30.27,NW,310,2.0,7.0,61,0.00,,,0.00,0,weatherlink.com 1.10,2013-03-17 23:37:00,
2013-03-17 19:52:00,23.1,11.0,30.28,NW,315,1.0,6.0,61,0.00,,,0.00,0,weatherlink.com 1.10,2013-03-17 23:52:00,
2013-03-17 20:07:00,22.8,11.0,30.28,NNW,331,2.0,5.0,62,0.00,,,0.00,0,weatherlink.com 1.10,2013-03-18 00:07:00,
2013-03-17 20:22:00,22.2,10.0,30.29,West,281,3.0,6.0,60,0.00,,,0.00,0,weatherlink.com 1.10,2013-03-18 00:22:00,
2013-03-17 20:37:00,22.1,10.0,30.30,West,276,5.0,8.0,60,0.00,,,0.00,0,weatherlink.com 1.10,2013-03-18 00:37:00,
2013-03-17 20:52:00,21.9,9.0,30.30,West,259,2.0,6.0,59,0.00,,,0.00,0,weatherlink.com 1.10,2013-03-18 00:52:00,
2013-03-17 21:07:00,21.5,9.0,30.30,WNW,287,1.0,4.0,60,0.00,,,0.00,0,weatherlink.com 1.10,2013-03-18 01:07:00,
2013-03-17 21:22:00,20.9,9.0,30.31,NW,305,1.0,4.0,61,0.00,,,0.00,0,weatherlink.com 1.10,2013-03-18 01:22:00,
2013-03-17 21:37:00,20.8,8.0,30.32,WNW,295,0.0,5.0,59,0.00,,,0.00,0,weatherlink.com 1.10,2013-03-18 01:37:00,
2013-03-17 21:52:00,20.6,8.0,30.32,NW,311,3.0,4.0,59,0.00,,,0.00,0,weatherlink.com 1.10,2013-03-18 01:52:00,
2013-03-17 22:07:00,20.3,8.0,30.32,NW,306,2.0,5.0,60,0.00,,,0.00,0,weatherlink.com 1.10,2013-03-18 02:07:00,
2013-03-17 22:22:00,20.2,8.0,30.32,West,278,2.0,5.0,59,0.00,,,0.00,0,weatherlink.com 1.10,2013-03-18 02:22:00,
2013-03-17 22:37:00,20.0,8.0,30.32,West,280,2.0,4.0,59,0.00,,,0.00,0,weatherlink.com 1.10,2013-03-18 02:37:00,
2013-03-17 22:52:00,19.9,8.0,30.33,WNW,286,1.0,5.0,60,0.00,,,0.00,0,weatherlink.com 1.10,2013-03-18 02:52:00,
2013-03-17 23:07:00,19.7,8.0,30.33,West,274,3.0,5.0,60,0.00,,,0.00,0,weatherlink.com 1.10,2013-03-18 03:07:00,
2013-03-17 23:22:00,19.7,8.0,30.33,WNW,291,4.0,5.0,61,0.00,,,0.00,0,weatherlink.com 1.10,2013-03-18 03:22:00,
2013-03-17 23:37:00,19.4,8.0,30.34,WNW,287,2.0,4.0,61,0.00,,,0.00,0,weatherlink.com 1.10,2013-03-18 03:37:00,
2013-03-17 23:52:00,19.4,8.0,30.34,WNW,290,3.0,5.0,62,0.00,,,0.00,0,weatherlink.com 1.10,2013-03-18 03:52:00,